FW3754 Weather Reports


Display with metric or nautical units.
time (UTC)temp
F
wind
direction
speed
MPH
gust
MPH
rain 1hr
in
rain 24hr
in
rain mn
in
humidity
%
barometer
mb
20260510160027 94 200 3.0 0.0 0.00 0.00 0.00 55 1016.0
20260510154532 94 256 4.0 0.0 0.00 0.00 0.00 53 1015.8
20260510153023 94 267 4.0 0.0 0.00 0.00 0.00 55 1015.8
20260510151519 92 217 2.0 0.0 0.00 0.00 0.00 61 1015.9
20260510150018 91 171 3.0 0.0 0.00 0.00 0.00 61 1015.8
20260510144524 91 207 2.0 0.0 0.00 0.00 0.00 64 1016.0
20260510143015 89 221 2.0 0.0 0.00 0.00 0.00 67 1015.8
20260510141510 89 121 3.0 0.0 0.00 0.00 0.00 68 1015.6
20260510140008 87 236 5.0 0.0 0.00 0.00 0.00 71 1015.6
20260510134506 87 229 3.0 0.0 0.00 0.00 0.00 72 1015.6
20260510133002 85 197 3.0 0.0 0.00 0.00 0.00 76 1015.6
20260510131601 84 240 2.0 0.0 0.00 0.00 0.00 77 1015.6
20260510130058 83 238 4.0 0.0 0.00 0.00 0.00 78 1015.3
20260510124604 83 264 3.0 0.0 0.00 0.00 0.00 78 1015.4
20260510123055 82 232 3.0 0.0 0.00 0.00 0.00 81 1015.2
20260510121551 81 216 3.0 0.0 0.00 0.00 0.00 84 1015.0
20260510120050 80 232 2.0 0.0 0.00 0.00 0.00 87 1014.8
20260510114549 79 251 1.0 0.0 0.00 0.00 0.00 89 1014.8
20260510113047 77 275 0.0 0.0 0.00 0.00 0.00 91 1014.6
20260510111555 77 259 0.0 0.0 0.00 0.00 0.00 91 1014.5
20260510110045 77 244 0.0 0.0 0.00 0.00 0.00 90 1014.4
20260510104604 77 271 0.0 0.0 0.00 0.00 0.00 90 1014.3
20260510103046 76 121 0.0 0.0 0.00 0.00 0.00 89 1014.1
20260510101543 77 121 0.0 0.0 0.00 0.00 0.00 88 1013.9
20260510100042 77 121 0.0 0.0 0.00 0.00 0.00 88 1014.0
20260510094543 77 121 0.0 0.0 0.00 0.00 0.00 88 1013.9
20260510093041 77 121 0.0 0.0 0.00 0.00 0.00 88 1013.9
20260510091539 77 121 0.0 0.0 0.00 0.00 0.00 87 1013.8
20260510090039 77 121 0.0 0.0 0.00 0.00 0.00 87 1013.5
20260510084537 77 121 0.0 0.0 0.00 0.00 0.00 87 1013.5
20260510083036 77 121 0.0 0.0 0.00 0.00 0.00 87 1013.5
20260510081537 78 121 0.0 0.0 0.00 0.00 0.00 85 1013.5
20260510080039 78 121 0.0 0.0 0.00 0.00 0.00 84 1013.5
20260510074535 78 121 0.0 0.0 0.00 0.00 0.00 84 1013.5
20260510073032 78 223 0.0 0.0 0.00 0.00 0.00 85 1013.5
20260510071531 78 223 0.0 0.0 0.00 0.00 0.00 85 1013.6
20260510070029 78 223 0.0 0.0 0.00 0.00 0.00 83 1013.6
20260510064530 79 223 0.0 0.0 0.00 0.00 0.00 82 1013.7
20260510063027 80 223 0.0 0.0 0.00 0.00 0.00 80 1013.8
20260510061530 81 223 0.0 0.0 0.00 0.00 0.00 78 1013.8
20260510060041 79 266 0.0 0.0 0.00 0.00 0.00 81 1014.0
20260510054523 79 264 0.0 0.0 0.00 0.00 0.00 80 1014.1
20260510053019 80 264 0.0 0.0 0.00 0.00 0.00 79 1014.1
20260510051519 80 264 0.0 0.0 0.00 0.00 0.00 77 1014.2
20260510050016 81 269 0.0 0.0 0.00 0.00 0.00 76 1014.3
20260510044517 81 265 1.0 0.0 0.00 0.00 0.00 75 1014.4
20260510043014 81 270 1.0 0.0 0.00 0.00 0.00 74 1014.4
20260510041516 82 282 1.0 0.0 0.00 0.00 0.00 73 1014.5
20260510040010 82 285 1.0 0.0 0.00 0.00 0.00 72 1014.5
20260510034507 82 259 2.0 0.0 0.00 0.00 0.00 71 1014.4
20260510033007 82 257 2.0 0.0 0.00 0.00 0.00 71 1014.4
20260510031506 82 275 1.0 0.0 0.00 0.00 0.00 71 1014.4
20260510030005 82 274 2.0 0.0 0.00 0.00 0.00 71 1014.2
20260510024506 82 290 2.0 0.0 0.00 0.00 0.00 71 1014.2
20260510023003 83 266 2.0 0.0 0.00 0.00 0.00 70 1014.0
20260510021502 83 265 3.0 0.0 0.00 0.00 0.00 70 1013.6
20260510020004 83 247 3.0 0.0 0.00 0.00 0.00 69 1013.5
20260510014502 83 239 4.0 0.0 0.00 0.00 0.00 68 1013.5
20260510013003 83 221 5.0 0.0 0.00 0.00 0.00 67 1013.3
20260510011503 84 269 5.0 0.0 0.00 0.00 0.00 68 1013.0
20260510010110 84 291 4.0 0.0 0.00 0.00 0.00 68 1012.8
20260510004600 84 252 5.0 0.0 0.00 0.00 0.00 67 1012.5
20260510003107 85 244 6.0 0.0 0.00 0.00 0.00 63 1012.2
20260510001559 85 206 5.0 0.0 0.00 0.00 0.00 64 1012.0
20260510000100 85 242 4.0 0.0 0.00 0.00 0.00 67 1011.8
20260509234608 87 258 2.0 0.0 0.00 0.00 0.00 65 1011.7
20260509233104 88 238 4.0 0.0 0.00 0.00 0.00 64 1011.5
20260509231605 89 240 3.0 0.0 0.00 0.00 0.00 63 1011.3
20260509230057 89 209 3.0 0.0 0.00 0.00 0.00 62 1011.1
20260509224609 90 257 4.0 0.0 0.00 0.00 0.00 59 1011.0
20260509223057 91 228 5.0 0.0 0.00 0.00 0.00 58 1010.9
20260509221556 93 281 4.0 0.0 0.00 0.00 0.00 53 1010.8
20260509220055 95 200 4.0 0.0 0.00 0.00 0.00 51 1010.9
20260509214555 96 211 5.0 0.0 0.00 0.00 0.00 51 1010.8
20260509213107 96 229 5.0 0.0 0.00 0.00 0.00 48 1010.8
20260509211613 98 237 5.0 0.0 0.00 0.00 0.00 45 1010.8
20260509210059 97 267 5.0 0.0 0.00 0.00 0.00 47 1010.9
20260509204601 97 252 6.0 0.0 0.00 0.00 0.00 48 1010.9
20260509203058 99 267 6.0 0.0 0.00 0.00 0.00 48 1011.0
20260509201550 100 246 4.0 0.0 0.00 0.00 0.00 48 1011.1
20260509200048 97 250 6.0 0.0 0.00 0.00 0.00 52 1011.3
20260509194548 100 215 5.0 0.0 0.00 0.00 0.00 48 1011.4
20260509193047 99 262 5.0 0.0 0.00 0.00 0.00 47 1011.5
20260509191543 101 238 6.0 0.0 0.00 0.00 0.00 46 1011.5
20260509190046 99 223 6.0 0.0 0.00 0.00 0.00 46 1011.6
20260509184539 99 172 4.0 0.0 0.00 0.00 0.00 44 1011.7
20260509183038 97 167 2.0 0.0 0.00 0.00 0.00 45 1012.0
20260509181533 96 238 6.0 0.0 0.00 0.00 0.00 45 1012.4
20260509180030 97 245 5.0 0.0 0.00 0.00 0.00 45 1012.5
20260509174533 96 248 5.0 0.0 0.00 0.00 0.00 45 1012.7
20260509173030 94 286 6.0 0.0 0.00 0.00 0.00 48 1012.8
20260509171528 94 260 5.0 0.0 0.00 0.00 0.00 46 1012.9
20260509170031 94 303 6.0 0.0 0.00 0.00 0.00 48 1012.9
20260509164528 96 271 4.0 0.0 0.00 0.00 0.00 43 1013.1
20260509163031 93 209 4.0 0.0 0.00 0.00 0.00 51 1013.5
20260509161522 93 254 4.0 0.0 0.00 0.00 0.00 51 1013.6